owner,sensor,date,latitude,longitude,relative_humidity,qcFlag 
DISL,ioos:station:DISL:BSCA:1,2017-09-01T00:00:00Z,30.3288,-87.8293,73.14,1111122 
DISL,ioos:station:DISL:BSCA:1,2017-09-01T00:30:00Z,30.3288,-87.8293,75.0,1111122 
DISL,ioos:station:DISL:BSCA:1,2017-09-01T01:00:00Z,30.3288,-87.8293,76.23,1111122 
DISL,ioos:station:DISL:BSCA:1,2017-09-01T01:30:00Z,30.3288,-87.8293,76.24,1111122 
DISL,ioos:station:DISL:BSCA:1,2017-09-01T02:00:00Z,30.3288,-87.8293,74.99,1111122 
DISL,ioos:station:DISL:BSCA:1,2017-09-01T02:30:00Z,30.3288,-87.8293,72.55,1111122 
DISL,ioos:station:DISL:BSCA:1,2017-09-01T03:00:00Z,30.3288,-87.8293,71.97,1111122 
DISL,ioos:station:DISL:BSCA:1,2017-09-01T03:30:00Z,30.3288,-87.8293,77.8,1111122 
DISL,ioos:station:DISL:BSCA:1,2017-09-01T04:00:00Z,30.3288,-87.8293,74.75,1111122 
DISL,ioos:station:DISL:BSCA:1,2017-09-01T04:30:00Z,30.3288,-87.8293,77.5,1111122 
DISL,ioos:station:DISL:BSCA:1,2017-09-01T05:00:00Z,30.3288,-87.8293,75.84,1111122 
DISL,ioos:station:DISL:BSCA:1,2017-09-01T05:30:00Z,30.3288,-87.8293,72.86,1111122 
DISL,ioos:station:DISL:BSCA:1,2017-09-01T06:00:00Z,30.3288,-87.8293,74.82,1111122 
DISL,ioos:station:DISL:BSCA:1,2017-09-01T06:30:00Z,30.3288,-87.8293,74.96,1111122 
DISL,ioos:station:DISL:BSCA:1,2017-09-01T07:00:00Z,30.3288,-87.8293,76.48,1111122 
DISL,ioos:station:DISL:BSCA:1,2017-09-01T07:30:00Z,30.3288,-87.8293,78.69,1111122 
DISL,ioos:station:DISL:BSCA:1,2017-09-01T08:00:00Z,30.3288,-87.8293,79.16,1111122 
DISL,ioos:station:DISL:BSCA:1,2017-09-01T08:30:00Z,30.3288,-87.8293,80.0,1111122 
DISL,ioos:station:DISL:BSCA:1,2017-09-01T09:00:00Z,30.3288,-87.8293,78.35,1111122 
DISL,ioos:station:DISL:BSCA:1,2017-09-01T09:30:00Z,30.3288,-87.8293,81.9,1111122 
DISL,ioos:station:DISL:BSCA:1,2017-09-01T10:00:00Z,30.3288,-87.8293,80.8,1111122 
DISL,ioos:station:DISL:BSCA:1,2017-09-01T10:30:00Z,30.3288,-87.8293,83.6,1111122 
DISL,ioos:station:DISL:BSCA:1,2017-09-01T11:00:00Z,30.3288,-87.8293,80.2,1111122 
DISL,ioos:station:DISL:BSCA:1,2017-09-01T11:30:00Z,30.3288,-87.8293,80.5,1111122 
DISL,ioos:station:DISL:BSCA:1,2017-09-01T12:00:00Z,30.3288,-87.8293,83.1,1111122 
DISL,ioos:station:DISL:BSCA:1,2017-09-01T12:30:00Z,30.3288,-87.8293,82.5,1111122 
DISL,ioos:station:DISL:BSCA:1,2017-09-01T13:00:00Z,30.3288,-87.8293,83.5,1111122 
DISL,ioos:station:DISL:BSCA:1,2017-09-01T13:30:00Z,30.3288,-87.8293,84.7,1111122 
DISL,ioos:station:DISL:BSCA:1,2017-09-01T14:00:00Z,30.3288,-87.8293,83.1,1111122 
DISL,ioos:station:DISL:BSCA:1,2017-09-01T14:30:00Z,30.3288,-87.8293,83.0,1111122 
DISL,ioos:station:DISL:BSCA:1,2017-09-01T15:00:00Z,30.3288,-87.8293,80.8,1111122 
DISL,ioos:station:DISL:BSCA:1,2017-09-01T15:30:00Z,30.3288,-87.8293,80.1,1111122 
DISL,ioos:station:DISL:BSCA:1,2017-09-01T16:00:00Z,30.3288,-87.8293,79.07,1111122 
DISL,ioos:station:DISL:BSCA:1,2017-09-01T16:30:00Z,30.3288,-87.8293,77.78,1111122 
DISL,ioos:station:DISL:BSCA:1,2017-09-01T17:00:00Z,30.3288,-87.8293,73.85,1111122 
DISL,ioos:station:DISL:BSCA:1,2017-09-01T17:30:00Z,30.3288,-87.8293,76.22,1111122 
DISL,ioos:station:DISL:BSCA:1,2017-09-01T18:00:00Z,30.3288,-87.8293,76.66,1111122 
DISL,ioos:station:DISL:BSCA:1,2017-09-01T18:30:00Z,30.3288,-87.8293,77.85,1111122 
DISL,ioos:station:DISL:BSCA:1,2017-09-01T19:00:00Z,30.3288,-87.8293,78.73,1111122 
DISL,ioos:station:DISL:BSCA:1,2017-09-01T19:30:00Z,30.3288,-87.8293,78.59,1111122 
DISL,ioos:station:DISL:BSCA:1,2017-09-01T20:00:00Z,30.3288,-87.8293,76.29,1111122 
DISL,ioos:station:DISL:BSCA:1,2017-09-01T20:30:00Z,30.3288,-87.8293,76.39,1111122 
DISL,ioos:station:DISL:BSCA:1,2017-09-01T21:00:00Z,30.3288,-87.8293,77.51,1111122 
DISL,ioos:station:DISL:BSCA:1,2017-09-01T21:30:00Z,30.3288,-87.8293,75.0,1111122 
DISL,ioos:station:DISL:BSCA:1,2017-09-01T22:00:00Z,30.3288,-87.8293,73.48,1111122 
DISL,ioos:station:DISL:BSCA:1,2017-09-01T22:30:00Z,30.3288,-87.8293,72.59,1111122 
DISL,ioos:station:DISL:BSCA:1,2017-09-01T23:00:00Z,30.3288,-87.8293,74.86,1111122 
DISL,ioos:station:DISL:BSCA:1,2017-09-01T23:30:00Z,30.3288,-87.8293,76.7,1111122 
DISL,ioos:station:DISL:BSCA:1,2017-09-02T00:00:00Z,30.3288,-87.8293,75.48,1111122 
DISL,ioos:station:DISL:BSCA:1,2017-09-02T00:30:00Z,30.3288,-87.8293,76.54,1111122 
DISL,ioos:station:DISL:BSCA:1,2017-09-02T01:00:00Z,30.3288,-87.8293,79.6,1111122 
DISL,ioos:station:DISL:BSCA:1,2017-09-02T01:30:00Z,30.3288,-87.8293,78.01,1111122 
DISL,ioos:station:DISL:BSCA:1,2017-09-02T02:00:00Z,30.3288,-87.8293,79.43,1111122 
DISL,ioos:station:DISL:BSCA:1,2017-09-02T02:30:00Z,30.3288,-87.8293,78.08,1111122 
DISL,ioos:station:DISL:BSCA:1,2017-09-02T03:00:00Z,30.3288,-87.8293,79.13,1111122 
DISL,ioos:station:DISL:BSCA:1,2017-09-02T03:30:00Z,30.3288,-87.8293,80.8,1111122 
DISL,ioos:station:DISL:BSCA:1,2017-09-02T04:00:00Z,30.3288,-87.8293,78.72,1111122 
DISL,ioos:station:DISL:BSCA:1,2017-09-02T04:30:00Z,30.3288,-87.8293,76.11,1111122 
DISL,ioos:station:DISL:BSCA:1,2017-09-02T05:00:00Z,30.3288,-87.8293,84.6,1111122 
DISL,ioos:station:DISL:BSCA:1,2017-09-02T05:30:00Z,30.3288,-87.8293,81.6,1111122 
DISL,ioos:station:DISL:BSCA:1,2017-09-02T06:00:00Z,30.3288,-87.8293,78.82,1111122 
DISL,ioos:station:DISL:BSCA:1,2017-09-02T06:30:00Z,30.3288,-87.8293,82.3,1111122 
DISL,ioos:station:DISL:BSCA:1,2017-09-02T07:00:00Z,30.3288,-87.8293,83.9,1111122 
DISL,ioos:station:DISL:BSCA:1,2017-09-02T07:30:00Z,30.3288,-87.8293,78.89,1111122 
DISL,ioos:station:DISL:BSCA:1,2017-09-02T08:00:00Z,30.3288,-87.8293,79.7,1111122 
DISL,ioos:station:DISL:BSCA:1,2017-09-02T08:30:00Z,30.3288,-87.8293,78.21,1111122 
DISL,ioos:station:DISL:BSCA:1,2017-09-02T09:00:00Z,30.3288,-87.8293,87.7,1111122 
DISL,ioos:station:DISL:BSCA:1,2017-09-02T09:30:00Z,30.3288,-87.8293,83.7,1111122 
DISL,ioos:station:DISL:BSCA:1,2017-09-02T10:00:00Z,30.3288,-87.8293,87.1,1111122 
DISL,ioos:station:DISL:BSCA:1,2017-09-02T10:30:00Z,30.3288,-87.8293,89.9,1111122 
DISL,ioos:station:DISL:BSCA:1,2017-09-02T11:00:00Z,30.3288,-87.8293,92.4,1111122 
DISL,ioos:station:DISL:BSCA:1,2017-09-02T11:30:00Z,30.3288,-87.8293,91.6,1111122 
DISL,ioos:station:DISL:BSCA:1,2017-09-02T12:00:00Z,30.3288,-87.8293,90.5,1111122 
DISL,ioos:station:DISL:BSCA:1,2017-09-02T12:30:00Z,30.3288,-87.8293,90.3,1111122 
DISL,ioos:station:DISL:BSCA:1,2017-09-02T13:00:00Z,30.3288,-87.8293,89.1,1111122 
DISL,ioos:station:DISL:BSCA:1,2017-09-02T13:30:00Z,30.3288,-87.8293,85.9,1111122 
DISL,ioos:station:DISL:BSCA:1,2017-09-02T14:00:00Z,30.3288,-87.8293,83.7,1111122 
DISL,ioos:station:DISL:BSCA:1,2017-09-02T14:30:00Z,30.3288,-87.8293,83.9,1111122 
DISL,ioos:station:DISL:BSCA:1,2017-09-02T15:00:00Z,30.3288,-87.8293,80.7,1111122 
DISL,ioos:station:DISL:BSCA:1,2017-09-02T15:30:00Z,30.3288,-87.8293,79.61,1111122 
DISL,ioos:station:DISL:BSCA:1,2017-09-02T16:00:00Z,30.3288,-87.8293,79.67,1111122 
DISL,ioos:station:DISL:BSCA:1,2017-09-02T16:30:00Z,30.3288,-87.8293,77.13,1111122 
DISL,ioos:station:DISL:BSCA:1,2017-09-02T17:00:00Z,30.3288,-87.8293,74.19,1111122 
DISL,ioos:station:DISL:BSCA:1,2017-09-02T17:30:00Z,30.3288,-87.8293,73.37,1111122 
DISL,ioos:station:DISL:BSCA:1,2017-09-02T18:00:00Z,30.3288,-87.8293,72.22,1111122 
DISL,ioos:station:DISL:BSCA:1,2017-09-02T18:30:00Z,30.3288,-87.8293,73.04,1111122 
DISL,ioos:station:DISL:BSCA:1,2017-09-02T19:00:00Z,30.3288,-87.8293,61.52,1111122 
DISL,ioos:station:DISL:BSCA:1,2017-09-02T19:30:00Z,30.3288,-87.8293,67.41,1111122 
DISL,ioos:station:DISL:BSCA:1,2017-09-02T20:00:00Z,30.3288,-87.8293,63.35,1111122 
DISL,ioos:station:DISL:BSCA:1,2017-09-02T20:30:00Z,30.3288,-87.8293,62.26,1111122 
DISL,ioos:station:DISL:BSCA:1,2017-09-02T21:00:00Z,30.3288,-87.8293,66.12,1111122 
DISL,ioos:station:DISL:BSCA:1,2017-09-02T21:30:00Z,30.3288,-87.8293,67.17,1111122 
DISL,ioos:station:DISL:BSCA:1,2017-09-02T22:00:00Z,30.3288,-87.8293,67.07,1111122 
DISL,ioos:station:DISL:BSCA:1,2017-09-02T22:30:00Z,30.3288,-87.8293,67.89,1111122 
DISL,ioos:station:DISL:BSCA:1,2017-09-02T23:00:00Z,30.3288,-87.8293,70.46,1111122 
DISL,ioos:station:DISL:BSCA:1,2017-09-02T23:30:00Z,30.3288,-87.8293,68.6,1111122 
DISL,ioos:station:DISL:BSCA:1,2017-09-03T00:00:00Z,30.3288,-87.8293,72.02,1111122 
DISL,ioos:station:DISL:BSCA:1,2017-09-03T00:30:00Z,30.3288,-87.8293,71.41,1111122 
DISL,ioos:station:DISL:BSCA:1,2017-09-03T01:00:00Z,30.3288,-87.8293,73.95,1111122 
DISL,ioos:station:DISL:BSCA:1,2017-09-03T01:30:00Z,30.3288,-87.8293,79.42,1111122 
DISL,ioos:station:DISL:BSCA:1,2017-09-03T02:00:00Z,30.3288,-87.8293,84.5,1111122 
DISL,ioos:station:DISL:BSCA:1,2017-09-03T02:30:00Z,30.3288,-87.8293,87.8,1111122 
DISL,ioos:station:DISL:BSCA:1,2017-09-03T03:00:00Z,30.3288,-87.8293,87.5,1111122 
DISL,ioos:station:DISL:BSCA:1,2017-09-03T03:30:00Z,30.3288,-87.8293,87.2,1111122 
DISL,ioos:station:DISL:BSCA:1,2017-09-03T04:00:00Z,30.3288,-87.8293,88.2,1111122 
DISL,ioos:station:DISL:BSCA:1,2017-09-03T04:30:00Z,30.3288,-87.8293,90.6,1111122 
DISL,ioos:station:DISL:BSCA:1,2017-09-03T05:00:00Z,30.3288,-87.8293,87.6,1111122 
DISL,ioos:station:DISL:BSCA:1,2017-09-03T05:30:00Z,30.3288,-87.8293,82.6,1111122 
DISL,ioos:station:DISL:BSCA:1,2017-09-03T06:00:00Z,30.3288,-87.8293,83.7,1111122 
DISL,ioos:station:DISL:BSCA:1,2017-09-03T06:30:00Z,30.3288,-87.8293,83.0,1111122 
DISL,ioos:station:DISL:BSCA:1,2017-09-03T07:00:00Z,30.3288,-87.8293,82.5,1111122 
DISL,ioos:station:DISL:BSCA:1,2017-09-03T07:30:00Z,30.3288,-87.8293,86.6,1111122 
DISL,ioos:station:DISL:BSCA:1,2017-09-03T08:00:00Z,30.3288,-87.8293,87.2,1111122 
DISL,ioos:station:DISL:BSCA:1,2017-09-03T08:30:00Z,30.3288,-87.8293,90.3,1111122 
DISL,ioos:station:DISL:BSCA:1,2017-09-03T09:00:00Z,30.3288,-87.8293,88.2,1111122 
DISL,ioos:station:DISL:BSCA:1,2017-09-03T09:30:00Z,30.3288,-87.8293,88.1,1111122 
DISL,ioos:station:DISL:BSCA:1,2017-09-03T10:00:00Z,30.3288,-87.8293,89.9,1111122 
DISL,ioos:station:DISL:BSCA:1,2017-09-03T10:30:00Z,30.3288,-87.8293,89.2,1111122 
DISL,ioos:station:DISL:BSCA:1,2017-09-03T11:00:00Z,30.3288,-87.8293,90.5,1111122 
DISL,ioos:station:DISL:BSCA:1,2017-09-03T11:30:00Z,30.3288,-87.8293,88.6,1111122 
DISL,ioos:station:DISL:BSCA:1,2017-09-03T12:00:00Z,30.3288,-87.8293,90.7,1111122 
DISL,ioos:station:DISL:BSCA:1,2017-09-03T12:30:00Z,30.3288,-87.8293,85.6,1111122 
DISL,ioos:station:DISL:BSCA:1,2017-09-03T13:00:00Z,30.3288,-87.8293,81.9,1111122 
DISL,ioos:station:DISL:BSCA:1,2017-09-03T13:30:00Z,30.3288,-87.8293,81.4,1111122 
DISL,ioos:station:DISL:BSCA:1,2017-09-03T14:00:00Z,30.3288,-87.8293,79.16,1111122 
DISL,ioos:station:DISL:BSCA:1,2017-09-03T14:30:00Z,30.3288,-87.8293,74.38,1111122 
DISL,ioos:station:DISL:BSCA:1,2017-09-03T15:00:00Z,30.3288,-87.8293,73.9,1111122 
DISL,ioos:station:DISL:BSCA:1,2017-09-03T15:30:00Z,30.3288,-87.8293,73.17,1111122 
DISL,ioos:station:DISL:BSCA:1,2017-09-03T16:00:00Z,30.3288,-87.8293,74.42,1111122 
DISL,ioos:station:DISL:BSCA:1,2017-09-03T16:30:00Z,30.3288,-87.8293,72.9,1111122 
DISL,ioos:station:DISL:BSCA:1,2017-09-03T17:00:00Z,30.3288,-87.8293,75.1,1111122 
DISL,ioos:station:DISL:BSCA:1,2017-09-03T17:30:00Z,30.3288,-87.8293,72.56,1111122 
DISL,ioos:station:DISL:BSCA:1,2017-09-03T18:00:00Z,30.3288,-87.8293,71.54,1111122 
DISL,ioos:station:DISL:BSCA:1,2017-09-03T18:30:00Z,30.3288,-87.8293,66.84,1111122 
DISL,ioos:station:DISL:BSCA:1,2017-09-03T19:00:00Z,30.3288,-87.8293,64.3,1111122 
DISL,ioos:station:DISL:BSCA:1,2017-09-03T19:30:00Z,30.3288,-87.8293,58.94,1111122 
DISL,ioos:station:DISL:BSCA:1,2017-09-03T20:00:00Z,30.3288,-87.8293,58.81,1111122 
DISL,ioos:station:DISL:BSCA:1,2017-09-03T20:30:00Z,30.3288,-87.8293,55.72,1111122 
DISL,ioos:station:DISL:BSCA:1,2017-09-03T21:00:00Z,30.3288,-87.8293,51.29,1111122 
DISL,ioos:station:DISL:BSCA:1,2017-09-03T21:30:00Z,30.3288,-87.8293,48.78,1111122 
DISL,ioos:station:DISL:BSCA:1,2017-09-03T22:00:00Z,30.3288,-87.8293,47.76,1111122 
DISL,ioos:station:DISL:BSCA:1,2017-09-03T22:30:00Z,30.3288,-87.8293,48.88,1111122 
DISL,ioos:station:DISL:BSCA:1,2017-09-03T23:00:00Z,30.3288,-87.8293,48.71,1111122 
DISL,ioos:station:DISL:BSCA:1,2017-09-03T23:30:00Z,30.3288,-87.8293,47.87,1111122 
DISL,ioos:station:DISL:BSCA:1,2017-09-04T00:00:00Z,30.3288,-87.8293,53.52,1111122 
DISL,ioos:station:DISL:BSCA:1,2017-09-04T00:30:00Z,30.3288,-87.8293,64.09,1111122 
DISL,ioos:station:DISL:BSCA:1,2017-09-04T01:00:00Z,30.3288,-87.8293,59.35,1111122 
DISL,ioos:station:DISL:BSCA:1,2017-09-04T01:30:00Z,30.3288,-87.8293,64.34,1111122 
DISL,ioos:station:DISL:BSCA:1,2017-09-04T02:00:00Z,30.3288,-87.8293,69.87,1111122 
DISL,ioos:station:DISL:BSCA:1,2017-09-04T02:30:00Z,30.3288,-87.8293,67.91,1111122 
DISL,ioos:station:DISL:BSCA:1,2017-09-04T03:00:00Z,30.3288,-87.8293,69.4,1111122 
DISL,ioos:station:DISL:BSCA:1,2017-09-04T03:30:00Z,30.3288,-87.8293,73.47,1111122 
DISL,ioos:station:DISL:BSCA:1,2017-09-04T04:00:00Z,30.3288,-87.8293,82.5,1111122 
DISL,ioos:station:DISL:BSCA:1,2017-09-04T04:30:00Z,30.3288,-87.8293,84.0,1111122 
DISL,ioos:station:DISL:BSCA:1,2017-09-04T05:00:00Z,30.3288,-87.8293,87.0,1111122 
DISL,ioos:station:DISL:BSCA:1,2017-09-04T05:30:00Z,30.3288,-87.8293,82.9,1111122 
DISL,ioos:station:DISL:BSCA:1,2017-09-04T06:00:00Z,30.3288,-87.8293,83.8,1111122 
DISL,ioos:station:DISL:BSCA:1,2017-09-04T06:30:00Z,30.3288,-87.8293,79.8,1111122 
DISL,ioos:station:DISL:BSCA:1,2017-09-04T07:00:00Z,30.3288,-87.8293,81.3,1111122 
DISL,ioos:station:DISL:BSCA:1,2017-09-04T07:30:00Z,30.3288,-87.8293,83.8,1111122 
DISL,ioos:station:DISL:BSCA:1,2017-09-04T08:00:00Z,30.3288,-87.8293,87.3,1111122 
DISL,ioos:station:DISL:BSCA:1,2017-09-04T08:30:00Z,30.3288,-87.8293,84.2,1111122 
DISL,ioos:station:DISL:BSCA:1,2017-09-04T09:00:00Z,30.3288,-87.8293,89.9,1111122 
DISL,ioos:station:DISL:BSCA:1,2017-09-04T09:30:00Z,30.3288,-87.8293,88.3,1111122 
DISL,ioos:station:DISL:BSCA:1,2017-09-04T10:00:00Z,30.3288,-87.8293,83.5,1111122 
DISL,ioos:station:DISL:BSCA:1,2017-09-04T10:30:00Z,30.3288,-87.8293,90.3,1111122 
DISL,ioos:station:DISL:BSCA:1,2017-09-04T11:00:00Z,30.3288,-87.8293,88.0,1111122 
DISL,ioos:station:DISL:BSCA:1,2017-09-04T11:30:00Z,30.3288,-87.8293,88.0,1111122 
DISL,ioos:station:DISL:BSCA:1,2017-09-04T12:00:00Z,30.3288,-87.8293,89.2,1111122 
DISL,ioos:station:DISL:BSCA:1,2017-09-04T12:30:00Z,30.3288,-87.8293,85.9,1111122 
DISL,ioos:station:DISL:BSCA:1,2017-09-04T13:00:00Z,30.3288,-87.8293,85.8,1111122 
DISL,ioos:station:DISL:BSCA:1,2017-09-04T13:30:00Z,30.3288,-87.8293,81.5,1111122 
DISL,ioos:station:DISL:BSCA:1,2017-09-04T14:00:00Z,30.3288,-87.8293,78.08,1111122 
DISL,ioos:station:DISL:BSCA:1,2017-09-04T14:30:00Z,30.3288,-87.8293,76.28,1111122 
DISL,ioos:station:DISL:BSCA:1,2017-09-04T15:00:00Z,30.3288,-87.8293,73.61,1111122 
DISL,ioos:station:DISL:BSCA:1,2017-09-04T15:30:00Z,30.3288,-87.8293,74.86,1111122 
DISL,ioos:station:DISL:BSCA:1,2017-09-04T16:00:00Z,30.3288,-87.8293,64.33,1111122 
DISL,ioos:station:DISL:BSCA:1,2017-09-04T16:30:00Z,30.3288,-87.8293,63.96,1111122 
DISL,ioos:station:DISL:BSCA:1,2017-09-04T17:00:00Z,30.3288,-87.8293,68.12,1111122 
DISL,ioos:station:DISL:BSCA:1,2017-09-04T17:30:00Z,30.3288,-87.8293,68.97,1111122 
DISL,ioos:station:DISL:BSCA:1,2017-09-04T18:00:00Z,30.3288,-87.8293,69.11,1111122 
DISL,ioos:station:DISL:BSCA:1,2017-09-04T18:30:00Z,30.3288,-87.8293,66.73,1111122 
DISL,ioos:station:DISL:BSCA:1,2017-09-04T19:00:00Z,30.3288,-87.8293,66.63,1111122 
DISL,ioos:station:DISL:BSCA:1,2017-09-04T19:30:00Z,30.3288,-87.8293,64.91,1111122 
DISL,ioos:station:DISL:BSCA:1,2017-09-04T20:00:00Z,30.3288,-87.8293,67.41,1111122 
DISL,ioos:station:DISL:BSCA:1,2017-09-04T20:30:00Z,30.3288,-87.8293,67.07,1111122 
DISL,ioos:station:DISL:BSCA:1,2017-09-04T21:00:00Z,30.3288,-87.8293,70.66,1111122 
DISL,ioos:station:DISL:BSCA:1,2017-09-04T21:30:00Z,30.3288,-87.8293,67.41,1111122 
DISL,ioos:station:DISL:BSCA:1,2017-09-04T22:00:00Z,30.3288,-87.8293,66.46,1111122 
DISL,ioos:station:DISL:BSCA:1,2017-09-04T22:30:00Z,30.3288,-87.8293,64.53,1111122 
DISL,ioos:station:DISL:BSCA:1,2017-09-04T23:00:00Z,30.3288,-87.8293,67.41,1111122 
DISL,ioos:station:DISL:BSCA:1,2017-09-04T23:30:00Z,30.3288,-87.8293,63.69,1111122 
DISL,ioos:station:DISL:BSCA:1,2017-09-05T00:00:00Z,30.3288,-87.8293,68.83,1111122 
DISL,ioos:station:DISL:BSCA:1,2017-09-05T00:30:00Z,30.3288,-87.8293,68.56,1111122 
DISL,ioos:station:DISL:BSCA:1,2017-09-05T01:00:00Z,30.3288,-87.8293,70.41,1111122 
DISL,ioos:station:DISL:BSCA:1,2017-09-05T01:30:00Z,30.3288,-87.8293,68.69,1111122 
DISL,ioos:station:DISL:BSCA:1,2017-09-05T02:00:00Z,30.3288,-87.8293,69.26,1111122 
DISL,ioos:station:DISL:BSCA:1,2017-09-05T02:30:00Z,30.3288,-87.8293,68.89,1111122 
DISL,ioos:station:DISL:BSCA:1,2017-09-05T03:00:00Z,30.3288,-87.8293,69.67,1111122 
DISL,ioos:station:DISL:BSCA:1,2017-09-05T03:30:00Z,30.3288,-87.8293,70.42,1111122 
DISL,ioos:station:DISL:BSCA:1,2017-09-05T04:00:00Z,30.3288,-87.8293,67.77,1111122 
DISL,ioos:station:DISL:BSCA:1,2017-09-05T04:30:00Z,30.3288,-87.8293,68.08,1111122 
DISL,ioos:station:DISL:BSCA:1,2017-09-05T05:00:00Z,30.3288,-87.8293,68.45,1111122 
DISL,ioos:station:DISL:BSCA:1,2017-09-05T05:30:00Z,30.3288,-87.8293,68.04,1111122 
DISL,ioos:station:DISL:BSCA:1,2017-09-05T06:00:00Z,30.3288,-87.8293,69.94,1111122 
DISL,ioos:station:DISL:BSCA:1,2017-09-05T06:30:00Z,30.3288,-87.8293,68.86,1111122 
DISL,ioos:station:DISL:BSCA:1,2017-09-05T07:00:00Z,30.3288,-87.8293,69.54,1111122 
DISL,ioos:station:DISL:BSCA:1,2017-09-05T07:30:00Z,30.3288,-87.8293,67.88,1111122 
DISL,ioos:station:DISL:BSCA:1,2017-09-05T08:00:00Z,30.3288,-87.8293,67.77,1111122 
DISL,ioos:station:DISL:BSCA:1,2017-09-05T08:30:00Z,30.3288,-87.8293,69.16,1111122 
DISL,ioos:station:DISL:BSCA:1,2017-09-05T09:00:00Z,30.3288,-87.8293,68.35,1111122 
DISL,ioos:station:DISL:BSCA:1,2017-09-05T09:30:00Z,30.3288,-87.8293,87.7,1111122 
DISL,ioos:station:DISL:BSCA:1,2017-09-05T10:00:00Z,30.3288,-87.8293,85.0,1111122 
DISL,ioos:station:DISL:BSCA:1,2017-09-05T10:30:00Z,30.3288,-87.8293,89.5,1111122 
DISL,ioos:station:DISL:BSCA:1,2017-09-05T11:00:00Z,30.3288,-87.8293,91.3,1111122 
DISL,ioos:station:DISL:BSCA:1,2017-09-05T11:30:00Z,30.3288,-87.8293,88.6,1111122 
DISL,ioos:station:DISL:BSCA:1,2017-09-05T12:00:00Z,30.3288,-87.8293,90.6,1111122 
DISL,ioos:station:DISL:BSCA:1,2017-09-05T12:30:00Z,30.3288,-87.8293,86.4,1111122 
DISL,ioos:station:DISL:BSCA:1,2017-09-05T13:00:00Z,30.3288,-87.8293,85.2,1111122 
DISL,ioos:station:DISL:BSCA:1,2017-09-05T13:30:00Z,30.3288,-87.8293,82.8,1111122 
DISL,ioos:station:DISL:BSCA:1,2017-09-05T14:00:00Z,30.3288,-87.8293,81.7,1111122 
DISL,ioos:station:DISL:BSCA:1,2017-09-05T14:30:00Z,30.3288,-87.8293,77.33,1111122 
DISL,ioos:station:DISL:BSCA:1,2017-09-05T15:00:00Z,30.3288,-87.8293,78.14,1111122 
DISL,ioos:station:DISL:BSCA:1,2017-09-05T15:30:00Z,30.3288,-87.8293,73.59,1111122 
DISL,ioos:station:DISL:BSCA:1,2017-09-05T16:00:00Z,30.3288,-87.8293,74.16,1111122 
DISL,ioos:station:DISL:BSCA:1,2017-09-05T16:30:00Z,30.3288,-87.8293,72.43,1111122 
DISL,ioos:station:DISL:BSCA:1,2017-09-05T17:00:00Z,30.3288,-87.8293,69.51,1111122 
DISL,ioos:station:DISL:BSCA:1,2017-09-05T17:30:00Z,30.3288,-87.8293,68.09,1111122 
DISL,ioos:station:DISL:BSCA:1,2017-09-05T18:00:00Z,30.3288,-87.8293,61.52,1111122 
DISL,ioos:station:DISL:BSCA:1,2017-09-05T18:30:00Z,30.3288,-87.8293,58.84,1111122 
DISL,ioos:station:DISL:BSCA:1,2017-09-05T19:00:00Z,30.3288,-87.8293,56.61,1111122 
DISL,ioos:station:DISL:BSCA:1,2017-09-05T19:30:00Z,30.3288,-87.8293,55.12,1111122 
DISL,ioos:station:DISL:BSCA:1,2017-09-05T20:00:00Z,30.3288,-87.8293,53.12,1111122 
DISL,ioos:station:DISL:BSCA:1,2017-09-05T20:30:00Z,30.3288,-87.8293,54.81,1111122 
DISL,ioos:station:DISL:BSCA:1,2017-09-05T21:00:00Z,30.3288,-87.8293,56.74,1111122 
DISL,ioos:station:DISL:BSCA:1,2017-09-05T21:30:00Z,30.3288,-87.8293,59.18,1111122 
DISL,ioos:station:DISL:BSCA:1,2017-09-05T22:00:00Z,30.3288,-87.8293,63.41,1111122 
DISL,ioos:station:DISL:BSCA:1,2017-09-05T22:30:00Z,30.3288,-87.8293,63.92,1111122 
DISL,ioos:station:DISL:BSCA:1,2017-09-05T23:00:00Z,30.3288,-87.8293,66.77,1111122 
DISL,ioos:station:DISL:BSCA:1,2017-09-05T23:30:00Z,30.3288,-87.8293,68.5,1111122 
DISL,ioos:station:DISL:BSCA:1,2017-09-06T00:00:00Z,30.3288,-87.8293,66.54,1111122 
DISL,ioos:station:DISL:BSCA:1,2017-09-06T00:30:00Z,30.3288,-87.8293,67.23,1111122 
DISL,ioos:station:DISL:BSCA:1,2017-09-06T01:00:00Z,30.3288,-87.8293,68.55,1111122 
DISL,ioos:station:DISL:BSCA:1,2017-09-06T01:30:00Z,30.3288,-87.8293,69.26,1111122 
DISL,ioos:station:DISL:BSCA:1,2017-09-06T02:00:00Z,30.3288,-87.8293,69.5,1111122 
DISL,ioos:station:DISL:BSCA:1,2017-09-06T02:30:00Z,30.3288,-87.8293,70.79,1111122 
DISL,ioos:station:DISL:BSCA:1,2017-09-06T03:00:00Z,30.3288,-87.8293,71.4,1111122 
DISL,ioos:station:DISL:BSCA:1,2017-09-06T03:30:00Z,30.3288,-87.8293,72.65,1111122 
DISL,ioos:station:DISL:BSCA:1,2017-09-06T04:00:00Z,30.3288,-87.8293,76.58,1111122 
DISL,ioos:station:DISL:BSCA:1,2017-09-06T04:30:00Z,30.3288,-87.8293,77.23,1111122 
DISL,ioos:station:DISL:BSCA:1,2017-09-06T05:00:00Z,30.3288,-87.8293,72.11,1111122 
DISL,ioos:station:DISL:BSCA:1,2017-09-06T05:30:00Z,30.3288,-87.8293,74.35,1111122 
DISL,ioos:station:DISL:BSCA:1,2017-09-06T06:00:00Z,30.3288,-87.8293,73.53,1111122 
DISL,ioos:station:DISL:BSCA:1,2017-09-06T06:30:00Z,30.3288,-87.8293,75.09,1111122 
DISL,ioos:station:DISL:BSCA:1,2017-09-06T07:00:00Z,30.3288,-87.8293,85.4,1111122 
DISL,ioos:station:DISL:BSCA:1,2017-09-06T07:30:00Z,30.3288,-87.8293,85.6,1111122 
DISL,ioos:station:DISL:BSCA:1,2017-09-06T08:00:00Z,30.3288,-87.8293,88.2,1111122 
DISL,ioos:station:DISL:BSCA:1,2017-09-06T08:30:00Z,30.3288,-87.8293,87.6,1111122 
DISL,ioos:station:DISL:BSCA:1,2017-09-06T09:00:00Z,30.3288,-87.8293,78.38,1111122 
DISL,ioos:station:DISL:BSCA:1,2017-09-06T09:30:00Z,30.3288,-87.8293,83.3,1111122 
DISL,ioos:station:DISL:BSCA:1,2017-09-06T10:00:00Z,30.3288,-87.8293,85.9,1111122 
DISL,ioos:station:DISL:BSCA:1,2017-09-06T10:30:00Z,30.3288,-87.8293,93.3,1111122 
DISL,ioos:station:DISL:BSCA:1,2017-09-06T11:00:00Z,30.3288,-87.8293,88.9,1111122 
DISL,ioos:station:DISL:BSCA:1,2017-09-06T11:30:00Z,30.3288,-87.8293,94.4,1111122 
DISL,ioos:station:DISL:BSCA:1,2017-09-06T12:00:00Z,30.3288,-87.8293,96.8,1111122 
DISL,ioos:station:DISL:BSCA:1,2017-09-06T12:30:00Z,30.3288,-87.8293,94.9,1111122 
DISL,ioos:station:DISL:BSCA:1,2017-09-06T13:00:00Z,30.3288,-87.8293,91.5,1111122 
DISL,ioos:station:DISL:BSCA:1,2017-09-06T13:30:00Z,30.3288,-87.8293,89.2,1111122 
DISL,ioos:station:DISL:BSCA:1,2017-09-06T14:00:00Z,30.3288,-87.8293,91.2,1111122 
DISL,ioos:station:DISL:BSCA:1,2017-09-06T14:30:00Z,30.3288,-87.8293,88.6,1111122 
DISL,ioos:station:DISL:BSCA:1,2017-09-06T15:00:00Z,30.3288,-87.8293,86.1,1111122 
DISL,ioos:station:DISL:BSCA:1,2017-09-06T15:30:00Z,30.3288,-87.8293,79.6,1111122 
DISL,ioos:station:DISL:BSCA:1,2017-09-06T16:00:00Z,30.3288,-87.8293,79.3,1111122 
DISL,ioos:station:DISL:BSCA:1,2017-09-06T16:30:00Z,30.3288,-87.8293,82.4,1111122 
DISL,ioos:station:DISL:BSCA:1,2017-09-06T17:00:00Z,30.3288,-87.8293,82.3,1111122 
DISL,ioos:station:DISL:BSCA:1,2017-09-06T17:30:00Z,30.3288,-87.8293,81.8,1111122 
DISL,ioos:station:DISL:BSCA:1,2017-09-06T18:00:00Z,30.3288,-87.8293,75.4,1111122 
DISL,ioos:station:DISL:BSCA:1,2017-09-06T18:30:00Z,30.3288,-87.8293,73.84,1111122 
DISL,ioos:station:DISL:BSCA:1,2017-09-06T19:00:00Z,30.3288,-87.8293,66.99,1111122 
DISL,ioos:station:DISL:BSCA:1,2017-09-06T19:30:00Z,30.3288,-87.8293,66.34,1111122 
DISL,ioos:station:DISL:BSCA:1,2017-09-06T20:00:00Z,30.3288,-87.8293,64.78,1111122 
DISL,ioos:station:DISL:BSCA:1,2017-09-06T20:30:00Z,30.3288,-87.8293,66.61,1111122 
DISL,ioos:station:DISL:BSCA:1,2017-09-06T21:00:00Z,30.3288,-87.8293,60.79,1111122 
DISL,ioos:station:DISL:BSCA:1,2017-09-06T21:30:00Z,30.3288,-87.8293,62.76,1111122 
DISL,ioos:station:DISL:BSCA:1,2017-09-06T22:00:00Z,30.3288,-87.8293,63.77,1111122 
DISL,ioos:station:DISL:BSCA:1,2017-09-06T22:30:00Z,30.3288,-87.8293,63.16,1111122 
DISL,ioos:station:DISL:BSCA:1,2017-09-06T23:00:00Z,30.3288,-87.8293,65.37,1111122 
DISL,ioos:station:DISL:BSCA:1,2017-09-06T23:30:00Z,30.3288,-87.8293,66.72,1111122 
DISL,ioos:station:DISL:BSCA:1,2017-09-07T00:00:00Z,30.3288,-87.8293,70.18,1111122 